Regional Weather Roundup
Issued by NWS Sioux Falls, SD

Home | Current Version | Previous Version | Text Only | Print | Product List | Glossary Off
Versions: 1 2 3 4 5 6 7 8 9 10 11 12 13 14 15 16 17 18 19 20 21 22 23 24 25 26 27 28 29 30 31 32 33 34 35 36 37 38 39 40 41 42 43 44 45 46 47 48 49 50

000
ASUS43 KFSD 230210
RWRFSD

WEATHER ROUNDUP FOR SE SOUTH DAKOTA/SW MINNESOTA/NW IOWA
NATIONAL WEATHER SERVICE SIOUX FALLS SD
800 PM CST SAT NOV 22 2014

NOTE: "FAIR" INDICATES FEW OR NO CLOUDS BELOW 12,000 FEET WITH NO
SIGNIFICANT WEATHER AND OR OBSTRUCTIONS TO VISIBILITY.


SDZ038>040-050-052>070-230300-
SOUTHEAST SOUTH DAKOTA

CITY           SKY/WX    TMP DP  RH WIND       PRES   REMARKS
CHAMBERLAIN    CLOUDY    37  31  79 W3        29.43S
HURON          MOCLDY    37  33  85 S8        29.41S
MADISON        FAIR      37  37 100 S12       29.44S
MITCHELL       MOCLDY    44  34  67 SW8       29.45R
SIOUX FALLS    CLOUDY    40  37  89 S14       29.46F
WINNER         CLOUDY    47  32  56 CALM      29.44S
YANKTON        CLOUDY    48  37  66 SW9       29.47F
$$

MNZ071-072-080-081-089-090-097-098-230300-
SOUTHWEST MINNESOTA

CITY           SKY/WX    TMP DP  RH WIND       PRES   REMARKS
FAIRMONT       MOCLDY    41  37  87 S16       29.54F
JACKSON        PTCLDY    39  36  87 S12       29.53F
LUVERNE        CLOUDY    37  36  93 S10       29.49F FOG
MARSHALL       PTCLDY    39  34  81 SW24G31   29.44S
MONTEVIDEO     MOCLDY    34  34 100 S9        29.47S FOG     WCI  26
PIPESTONE      CLOUDY    37  36  93 S17       29.46S
REDWOOD FALLS  PTCLDY    35  33  92 SE16      29.49F FOG     WCI  25
TRACY          PTCLDY    40  36  87 S18       29.46F
WINDOM         PTCLDY    39  37  93 S10       29.51S FOG
WORTHINGTON    PTCLDY    37  36  93 S14       29.51F
$$

IAZ001>003-012>014-020>022-031-032-NEZ013-014-SDZ071-230300-
NORTHWEST IOWA

CITY           SKY/WX    TMP DP  RH WIND       PRES   REMARKS
CHEROKEE       CLOUDY    45  45 100 S15       29.55S
DENISON        CLOUDY    54  54 100 S14G22    29.58S
ESTHERVILLE    MOCLDY    38  37  97 S16       29.54F FOG
LE MARS          N/A     43  41  93 S10       29.53S
ORANGE CITY    MOCLDY    39  36  87 S10       29.51F FOG
SHELDON        PTCLDY    36  36 100 S13       29.50F FOG
SIOUX CITY     PTCLDY    36  34  92 SE8       29.55R
SPENCER        PTCLDY    40  38  93 S12       29.54F FOG
STORM LAKE     CLOUDY    48  48 100 S20       29.56F
$$

ABBREVIATIONS USED IN REMARKS
   TC - TEMPERATURE IN CELSIUS
  WCI - WIND CHILL INDEX
   HX - HEAT INDEX
  VSB - VISIBILITY



USA.gov is the U.S. government's official web portal to all federal, state and local government web resources and services.